Showing default

USA 8, 15543

Orbit data source: Space-Track

USA 8, 15543 is an American payload satellite in GEO that was launched on Thu, 24 Jan 1985 UTC via an SPACE SHUTTLE launch vehicle from the Air Force Eastern Test Range (AFETR). Payload-class satellites include a variety of spacecraft equipped with specific instruments for various scientific and technological missions. These include communications satellites like Starlink; space stations such as the ISS; scientific satellites like the Hubble; Earth observation satellites from companies like Planet Labs, Umbra, and HawkEye 360; GPS; miniature CubeSats for education and research; and military/defense satellites.

Loading next visibility...
Identifier
15543, 1985-010B
Orbit
GEO
Country
Flag of USUS
Related business
Manufacturer
TRW
Mission
Spacecraft
Bus & Motor
MAGNUM, MMBPS?
Mass
~2,715 kg wet, ~2,600 kg dry
Launch date (UTC)
1985-01-24 (41 years ago)
Launch vehicle
SPACE SHUTTLE
Launch site
Air Force Eastern Test Range (AFETR)
Object type
Payload
Rocket body
Debris
Shape & HBR
Unknown
Radar Cross Section
RCS unknown

Expand to show TLE details & history
Last TLE update: 5 days ago

TLE from 5 days ago
0 USA 8
1 15543U 85010B   26155.04072677  .00000025  00000-0  00000-0 0  9991
2 15543  12.6793 313.6675 0131148  56.5846 128.3460  0.99809331  7699
Epoch: 2026-06-04T00:58Z
TLE epoch observation values (Epoch: 2026-06-04T00:58:38.792Z)
Latitude
-1.34256°
Longitude
-127.53831°
Altitude
36,262.123 km
Speed
3.045 km/s
True Right ascension
09h 18m 27s
True Declination
-1° 20' 28"
Sunlit
Object was in daylight at epoch
Visualization orbit readout
Latitude
Unknown
Longitude
Unknown
Altitude
Unknown
Speed
Unknown
Apparent Right ascension
Unknown
Apparent Declination
Unknown
Sunlit
N/A
Visualization observer readout
Local Sidereal Time
14:33:04
Azimuth
Unknown
Elevation
Unknown
Doppler factor
Unknown
Orbital elements
Apogee altitude
36,472.432 km
Perigee altitude
35,363.028 km
Semi-major axis
42,295.867 km
Eccentricity
0.01311
Inclination
12.6793°
RAAN
313.6675°
Arg. of periapsis
56.5846°
True anomaly
129.5127°
Mean anomaly
128.346°
Eccentric anomaly
128.93054°
Mean motion
0.24951 °/min
Orbital period
1,442.8 mins
BSTAR
0
Loading maneuver chart data...
Computing Atmospheric mass density...
Loading historical data...
Loading historical data...
Loading historical data...
Loading historical data...
Loading historical data...
Loading historical data...
Loading historical data...
Other satellites on launch #10 in the year 1985 (1985-01-24 UTC)

Documentation

Showing up to 5 results
|